SCP
0 0 0 0 0 0 0 0 0 0 0 0 0 0 0 0 0 0 0 0 0 0 0 0 0 0 0 0 0 0 0 0 0 0 0 0 0 0
0 0 0 0 0 0 0 0 0 0 0 0 0 0 0 0 0 0 0 0 0 0 0 0 0 0 0 0 0 0 0 0 0 0 0 0 0 0
0 0 0 0 0 0 0 0 0 0 0 0 0 0 0 0 0 0 0 0 0 0 0 0 0 0 0 0 0 0 0 0 0 0 0 0 0 0
0 0 0 0 0 0 0 0 0 0 0 0 0 0 0 0 0 0 0 0 0 0 0 0 0 0 0 0 0 0 0 0 0 0 0 0 0 0
0 0 0 0 0 0 0 0 0 0 0 0 0 0 0 0 0 0 0 0 0 0 0 0 0 0 0 0 0 0 0 0 0 0 0 0 0 0
0 0 0 0 0 0 0 0 0 0 0 0 0 0 0 0 0 0 0 0 0 0 0 0 0 0 0 0 0 0 0 0 0 0 0 0 0 0
0 0 0 0 0 0 0 0 0 0 0 0 0 0 0 0 0 0 0 0 0 0 0 0 0 0 0 0 0 0 0 0 0 0 0 0 0 0
0 0 0 0 0 0 0 0 0 0 0 0 0 0 0 0 0 0 0 0 0 0 0 0 -0 0 0 0 0 0 0 0 0 0 0 0 0 0
0 0 0 0 0 0 0 0 0 0 0 0 0 0 0 0 0 0 0 0 0 0 0 0 0 0 0 0 0 0 0 0 0 0 0 0 0 0
0 0 0 0 0 0 0 0 0 0 0 0 0 0 0 0 0 0 0 0 0 0 0 0 0 0 0 0 0 0 0 0 0 0 0 0 0 0
0 0 0 0 0 0 0 0 0 0 0 0 0 0 0 0 0 0 0 0 0 0 0 0 0 0 0 0 0 0 0 0 0 0 0 0 0 0
0 0 0 0 0 0 0 0 0 0 0 0 0 0 0 0 0 0 0 0 0 0 0 0 0 0 0 0 0 0 0 0 0 0 0 0 0 0
0 0 0 0 0 0 0 0 0 0 0 0 0 0 0 0 0 0 0 0 0 0 0 0 0 0 0 0 0 0 0 0 0 0 0 0 0 0
0 0 0 0 0 0 0 0 0 0 0 0 0 0 0 0 0 0 0 0 0 0 0 0 0 0 0 0 0 0 0 0 0 0 0 0 0 0
0 0 0 0 0 0 0 0 0 0 0 0 0 0 0 0 0 0 0 0 0 0 0 0 0 0 0 0 0 0 0 0 0 0 0 0 0 0
0 0 0 0 0 0 0 0 0 0 0 0 0 0 0 0 0 0 0 0 0 0 0 0 0 0 0 0 0 0 0 0 0 0 0 0 0 0
0 0 0 0 0 0 0 0 0 0 0 0 0 0 0 0 0 0 0 0 0 0 0 0 0 0 0 0 0 0 0 0 0 0 0 0 0 0
0 0 0 0 0 0 0 0 0 0 0 0 0 0 0 0 0 0 0 0 0 0 0 0 0 0 0 0 0 0 0 0 0 0 0 0 0 0
0 0 0 0 0 0 0 0 0 0 0 0 0 0 0 0 0 0 0 0 0 0 0 0 0 0 0 0 0 0 0 0 0 0 0 0 0 0
0 0 0 0 0 0 0 0 0 0 0 0 0 0 0 0 0 0 0 0 0 0 0 0 0 0 0 0 0 0 0 0 0 0 0 0 0 0
0 0 0 0 0 0 0 0 0 0 0 0 0 0 0 0 0 0 0 0 0 0 0 0 0 0 0 0 0 0 0 0 0 0 0 0 0 0
0 0 0 0 0 0 0 0 0 0 0 0 0 0 0 0 0 0 0 0 0 0 0 0 0 0 0 0 0 0 0 0 0 0 0 0 0 0
0 0 0 0 0 0 0 0 0 0 0 0 0 0 0 0 0 0 0 0 0 0 0 0 0 0 0 0 0 0 0 0 0 0 0 0 0 0
Wind_Speed
3 3 3 2 2 2 2 2 2 3 4 3 2 2 2 2 4 3 3 6 9 9 10 10 10 10 11 12 12 13 13 13 14 15 16 16 16 16
2 3 2 2 2 2 2 2 3 3 4 3 2 3 3 4 6 4 4 8 9 10 11 11 10 10 11 12 12 12 12 12 13 14 15 15 15 15
3 3 3 2 2 2 2 3 3 3 5 4 3 3 4 4 4 4 4 4 4 9 10 11 11 11 11 11 12 12 12 12 13 14 14 14 14 14
3 3 3 2 3 2 2 3 3 3 4 5 4 3 4 4 4 4 4 4 4 8 10 11 11 11 11 11 11 11 11 12 12 13 13 14 13 14
3 3 3 2 3 3 3 3 3 3 3 4 4 3 3 3 4 5 5 4 5 6 8 9 10 11 11 11 11 11 11 11 12 12 12 12 12 13
3 3 3 3 4 3 4 3 3 3 3 3 3 4 3 3 3 3 4 3 4 5 6 7 9 10 11 11 11 11 11 11 11 11 11 11 11 11
2 3 3 4 5 4 3 2 3 2 2 3 3 3 3 3 3 3 4 4 4 3 3 4 5 4 5 8 9 9 10 10 10 10 11 11 10 10
2 2 3 4 4 6 6 6 5 4 3 3 3 4 4 3 3 4 4 4 4 3 3 5 3 4 4 3 6 9 9 9 9 10 10 9 9 9
3 2 2 3 3 2 3 5 5 6 6 4 4 5 5 4 4 4 4 4 5 4 4 5 4 4 4 4 8 8 8 8 9 9 9 9 8 9
2 2 2 2 2 2 2 1 2 3 4 3 3 4 4 4 4 5 4 4 4 3 3 4 4 4 4 3 6 7 8 8 9 9 8 8 8 8
2 2 2 2 4 4 2 1 2 3 4 5 6 6 7 8 6 3 3 3 4 4 2 2 3 3 3 3 4 6 7 8 8 8 8 8 8 7
1 2 3 3 4 4 2 2 3 3 3 3 4 5 4 5 6 3 3 3 3 3 2 1 2 2 3 2 2 2 3 6 8 8 8 8 8 4
1 1 1 3 4 5 4 2 4 4 2 2 2 2 2 2 3 2 2 2 3 3 2 1 2 2 2 3 3 2 2 3 3 5 6 8 7 5
1 1 1 3 4 5 3 3 4 3 1 1 2 2 2 2 2 2 3 2 2 3 3 2 2 2 2 3 3 3 2 3 2 3 3 5 5 6
1 2 3 3 4 3 3 4 3 1 1 1 2 2 2 2 2 2 2 2 3 3 3 3 2 2 2 2 3 3 4 3 2 2 3 3 2 3
1 1 2 3 2 2 2 2 1 1 1 2 1 2 2 2 2 2 2 2 2 3 3 3 2 2 2 2 2 3 3 3 3 3 3 3 3 2
0 0 0 0 0 1 1 1 1 1 1 2 2 2 2 2 2 2 2 2 2 3 3 3 2 1 1 2 3 3 3 3 3 3 3 3 3 2
0 0 0 0 1 1 1 1 1 1 1 2 2 2 2 2 2 2 2 2 2 2 3 3 3 3 2 2 2 3 2 2 3 3 2 2 3 3
0 0 0 1 1 1 1 1 1 2 1 1 2 2 2 2 2 2 2 2 2 2 2 2 2 2 2 3 3 2 2 2 3 2 2 1 2 3
0 0 0 1 1 1 1 1 1 1 1 2 2 2 2 2 2 2 2 2 2 2 2 2 2 1 2 2 2 3 3 2 2 2 2 2 1 2
1 1 1 1 1 1 1 1 1 2 2 2 2 2 2 1 2 2 2 3 2 2 2 3 3 4 2 1 1 2 3 4 3 2 1 1 2 2
0 1 1 1 1 1 1 1 1 2 2 2 2 2 2 2 2 2 2 2 2 2 2 3 3 2 1 1 2 2 3 3 4 5 5 3 1 1
0 1 1 1 1 1 1 1 2 2 2 2 2 2 2 2 2 2 2 2 2 2 2 2 2 1 1 1 1 1 2 3 3 3 4 6 5 3
Wind_Direction
238 237 236 239 242 248 245 231 236 271 278 267 278 294 307 303 290 284 271 287 296 298 299 300 298 299 300 300 300 300 300 301 301 301 301 300 300 299
237 237 240 241 239 243 244 245 235 245 266 275 285 294 305 299 295 297 275 288 288 292 295 297 298 298 298 301 302 301 302 302 301 300 300 300 302 301
246 242 243 241 240 243 243 243 245 243 264 280 279 289 294 291 299 300 289 275 276 285 290 295 299 300 299 300 301 302 302 303 304 304 304 304 305 305
240 242 245 245 243 251 248 247 247 241 252 274 283 286 287 284 289 292 296 294 281 286 288 292 295 296 298 298 299 300 302 303 303 304 305 306 306 308
234 238 241 241 250 252 254 251 251 258 254 261 277 283 287 290 297 293 291 296 297 293 291 292 294 295 297 297 297 298 300 301 301 303 304 305 306 307
236 239 239 237 241 244 252 252 253 257 253 259 272 281 282 284 288 295 300 298 299 305 301 297 297 296 297 298 296 296 297 298 300 302 305 307 307 307
243 243 243 255 260 252 258 250 252 257 255 257 266 278 279 287 290 292 293 299 294 293 303 298 294 290 292 296 296 297 298 300 301 303 305 306 305 306
238 246 247 247 258 266 272 271 262 252 251 257 266 267 275 281 287 290 294 302 299 302 309 302 297 293 292 286 297 301 302 307 309 309 308 310 308 309
225 235 256 259 270 255 270 283 285 280 267 261 265 273 275 274 279 288 287 290 285 291 302 296 299 297 293 302 309 307 310 313 312 312 312 315 315 313
231 231 234 231 241 260 255 275 282 290 282 278 264 274 282 280 268 268 271 282 285 289 286 284 292 290 297 299 311 314 316 316 316 317 318 318 318 319
251 246 240 224 249 275 265 268 287 293 295 289 290 293 295 297 295 292 287 287 296 297 287 269 281 294 297 299 314 326 327 326 326 327 327 325 324 318
253 245 252 259 264 277 244 229 264 277 289 308 307 308 305 304 305 292 277 279 287 291 288 283 291 316 308 299 315 325 322 327 331 333 334 333 329 317
250 259 257 282 287 286 284 254 263 280 278 289 298 299 302 305 310 306 289 273 275 275 286 291 291 294 279 298 309 305 313 318 322 325 331 335 334 331
238 253 267 288 295 295 295 293 297 309 299 292 295 297 300 306 311 313 313 310 289 279 291 290 277 286 292 298 304 310 312 317 319 320 321 328 327 329
243 272 291 301 307 302 302 307 308 298 272 274 285 293 299 298 305 315 316 313 314 313 310 300 290 296 292 288 299 307 311 313 317 324 325 325 328 329
273 279 303 307 311 312 317 316 312 283 278 270 281 291 298 305 311 318 320 320 326 329 329 326 324 317 309 306 299 307 312 308 320 322 326 333 338 336
278 281 287 284 305 319 314 316 324 333 318 300 293 298 303 308 315 317 311 313 306 314 325 329 328 322 316 315 308 308 311 313 314 328 337 338 340 347
288 170 228 253 262 278 295 313 318 314 305 301 300 297 302 305 310 318 317 313 312 314 316 321 325 323 330 348 326 295 310 314 322 334 341 340 338 346
72 168 244 259 274 281 292 302 299 298 296 292 299 298 295 300 304 312 316 315 314 316 320 323 327 334 332 329 328 339 314 319 329 336 343 342 329 335
48 226 262 281 293 294 296 300 302 303 303 300 297 295 297 297 297 300 300 306 312 318 323 326 328 319 297 292 301 319 332 323 322 328 337 345 347 342
353 333 317 310 307 299 291 291 293 295 294 295 293 292 291 291 292 294 297 301 306 313 316 313 298 301 292 299 313 325 338 350 350 333 328 342 351 3
341 331 324 311 300 292 291 292 296 298 296 295 296 292 286 280 285 293 297 299 301 300 300 302 311 321 334 329 316 325 336 344 5 19 24 25 20 359
307 307 304 299 295 293 288 287 291 292 291 290 289 286 281 282 285 288 291 291 292 293 300 309 322 336 333 317 318 344 352 351 3 22 23 19 28 23